GFSNW_500_temp_024.txt.gz
Temp
-15 -15 -14 -14 -14 -14 -14 -14 -14 -14 -14 -14 -14 -14 -13 -14 -14 -14 -14 -14 -14 -14 -14 -14 -14 -14 -14 -14 -14 -14 -14 -14 -14 -14 -15 -15 -15 -15 -15 -15 -16 -16 -16 -15
-15 -15 -14 -14 -14 -14 -14 -14 -14 -14 -14 -14 -13 -13 -14 -14 -14 -13 -13 -14 -14 -14 -14 -14 -14 -14 -14 -14 -14 -14 -14 -14 -14 -14 -14 -14 -14 -15 -15 -15 -15 -16 -16 -16
-16 -15 -15 -14 -14 -14 -14 -14 -14 -14 -14 -13 -14 -14 -14 -14 -13 -14 -14 -14 -14 -14 -14 -14 -14 -14 -14 -14 -14 -14 -14 -14 -14 -15 -15 -15 -15 -15 -15 -15 -15 -15 -16 -16
-16 -15 -15 -15 -14 -14 -14 -14 -14 -14 -14 -13 -14 -14 -14 -13 -13 -14 -14 -14 -14 -14 -14 -14 -14 -14 -14 -14 -14 -14 -14 -14 -15 -15 -15 -15 -15 -15 -15 -16 -16 -16 -16 -16
-17 -16 -15 -15 -14 -14 -14 -14 -14 -14 -14 -14 -13 -13 -14 -13 -14 -14 -14 -14 -14 -14 -14 -13 -14 -14 -14 -14 -14 -14 -14 -14 -15 -15 -15 -15 -15 -15 -15 -15 -16 -16 -17 -17
-17 -16 -15 -15 -15 -14 -14 -14 -14 -14 -14 -14 -14 -14 -13 -14 -14 -14 -14 -14 -13 -13 -14 -14 -14 -14 -14 -14 -14 -14 -15 -15 -15 -15 -15 -15 -15 -15 -15 -15 -16 -16 -16 -17
-17 -17 -16 -15 -15 -14 -14 -14 -14 -14 -14 -14 -14 -14 -14 -13 -14 -14 -14 -13 -14 -14 -14 -14 -14 -14 -14 -14 -14 -14 -15 -15 -15 -15 -15 -15 -15 -15 -15 -16 -16 -16 -17 -17
-17 -17 -17 -16 -15 -15 -15 -14 -14 -14 -14 -14 -13 -14 -14 -13 -14 -14 -13 -14 -14 -14 -14 -14 -14 -14 -14 -15 -15 -15 -15 -15 -15 -15 -15 -15 -16 -15 -16 -16 -16 -16 -17 -17
-18 -17 -17 -17 -16 -15 -15 -15 -14 -14 -14 -14 -14 -14 -13 -14 -13 -14 -14 -14 -14 -14 -14 -14 -14 -14 -15 -14 -14 -15 -15 -15 -15 -15 -15 -16 -16 -16 -16 -16 -16 -16 -17 -17
-18 -18 -17 -17 -17 -16 -16 -15 -15 -14 -14 -14 -14 -14 -14 -14 -14 -13 -14 -14 -14 -14 -14 -14 -14 -14 -15 -14 -15 -15 -15 -15 -15 -15 -16 -16 -16 -16 -16 -16 -17 -17 -18 -17
-18 -18 -18 -17 -17 -17 -16 -16 -15 -15 -15 -15 -14 -14 -14 -14 -14 -14 -14 -14 -14 -14 -14 -14 -14 -14 -15 -15 -15 -15 -15 -16 -16 -16 -17 -16 -16 -16 -16 -17 -18 -18 -18 -18
-19 -18 -18 -18 -17 -17 -17 -16 -16 -16 -15 -15 -15 -15 -15 -14 -14 -14 -15 -14 -15 -14 -14 -15 -15 -15 -15 -15 -15 -16 -16 -16 -16 -16 -17 -17 -17 -16 -17 -17 -18 -18 -18 -18
-19 -18 -18 -18 -18 -18 -17 -17 -17 -16 -16 -16 -15 -15 -15 -15 -15 -14 -14 -14 -14 -15 -14 -15 -15 -15 -15 -15 -15 -16 -17 -17 -17 -17 -17 -18 -17 -17 -18 -18 -19 -19 -18 -19
-19 -19 -18 -18 -18 -18 -18 -17 -17 -17 -16 -16 -16 -16 -15 -15 -15 -15 -15 -15 -15 -15 -15 -15 -15 -15 -15 -15 -16 -16 -17 -17 -17 -17 -18 -18 -17 -18 -18 -19 -19 -19 -19 -19
-19 -19 -19 -19 -18 -18 -18 -18 -17 -17 -17 -16 -16 -16 -16 -15 -15 -15 -15 -15 -15 -15 -15 -15 -16 -15 -16 -15 -15 -16 -18 -18 -18 -18 -18 -18 -18 -19 -19 -19 -19 -19 -19 -19
-19 -19 -18 -18 -18 -18 -18 -18 -17 -17 -17 -17 -16 -16 -16 -16 -16 -16 -16 -16 -16 -16 -16 -16 -16 -16 -16 -16 -16 -17 -18 -18 -18 -18 -18 -18 -18 -19 -19 -19 -19 -19 -20 -20
-19 -19 -18 -18 -18 -18 -18 -17 -18 -18 -18 -17 -17 -16 -16 -16 -16 -16 -16 -17 -17 -17 -16 -16 -16 -17 -17 -16 -16 -18 -18 -18 -18 -18 -18 -19 -19 -19 -19 -20 -20 -20 -20 -20
-19 -19 -19 -18 -18 -18 -18 -18 -18 -18 -17 -17 -16 -16 -16 -17 -17 -17 -17 -17 -17 -17 -17 -16 -17 -17 -17 -16 -18 -18 -19 -19 -19 -19 -19 -19 -20 -20 -20 -20 -20 -20 -21 -21
-19 -19 -19 -19 -18 -18 -19 -19 -19 -18 -18 -17 -16 -16 -17 -17 -17 -18 -18 -18 -18 -17 -17 -18 -18 -17 -17 -18 -18 -19 -19 -19 -19 -19 -20 -20 -20 -20 -20 -21 -21 -21 -21 -22
-19 -19 -19 -19 -19 -19 -19 -19 -19 -19 -18 -18 -17 -17 -17 -18 -18 -18 -18 -18 -18 -18 -18 -18 -18 -17 -18 -19 -19 -20 -19 -19 -20 -20 -20 -20 -20 -20 -21 -21 -21 -22 -22 -23
-19 -19 -18 -19 -19 -20 -20 -19 -19 -18 -18 -18 -17 -18 -18 -18 -19 -19 -19 -19 -19 -19 -18 -18 -18 -18 -18 -19 -19 -20 -20 -20 -20 -20 -20 -20 -20 -21 -21 -22 -23 -23 -23 -23
-19 -19 -19 -19 -19 -20 -19 -19 -19 -18 -18 -17 -17 -18 -19 -19 -19 -19 -19 -20 -20 -19 -19 -19 -18 -18 -18 -19 -20 -20 -20 -20 -20 -20 -20 -21 -21 -22 -22 -23 -23 -24 -24 -24
-20 -20 -20 -20 -19 -20 -19 -19 -18 -18 -17 -17 -18 -19 -19 -19 -20 -19 -20 -20 -20 -19 -19 -19 -19 -19 -19 -19 -20 -20 -20 -20 -20 -21 -21 -22 -22 -23 -23 -24 -24 -24 -25 -25
-20 -20 -20 -20 -20 -20 -20 -19 -18 -18 -18 -19 -18 -19 -19 -19 -20 -20 -20 -20 -20 -20 -19 -19 -20 -20 -20 -20 -20 -20 -21 -21 -22 -22 -22 -23 -23 -24 -24 -25 -25 -25 -26 -26
-21 -21 -21 -20 -20 -20 -20 -20 -20 -20 -20 -20 -20 -19 -20 -20 -20 -20 -20 -20 -20 -20 -20 -20 -20 -20 -21 -21 -21 -21 -22 -22 -22 -23 -23 -24 -24 -25 -25 -25 -26 -26 -27 -28
-22 -22 -22 -21 -21 -21 -21 -20 -20 -20 -20 -20 -20 -20 -20 -20 -20 -20 -20 -21 -21 -21 -21 -21 -21 -21 -22 -22 -22 -22 -23 -23 -24 -24 -24 -25 -25 -25 -26 -26 -27 -27 -28 -29
-23 -23 -23 -23 -23 -23 -22 -22 -21 -21 -21 -21 -21 -21 -21 -21 -21 -21 -21 -21 -21 -21 -22 -22 -22 -23 -23 -23 -23 -24 -24 -24 -25 -25 -26 -26 -26 -27 -27 -28 -28 -29 -29 -30

GFSNW_500_temp_030.txt.gz
Temp
-16 -16 -16 -15 -15 -15 -15 -15 -15 -15 -15 -15 -15 -14 -14 -14 -15 -14 -14 -14 -14 -14 -14 -14 -15 -15 -15 -15 -14 -15 -14 -14 -14 -14 -14 -14 -14 -14 -14 -15 -15 -14 -15 -15
-16 -16 -16 -15 -15 -15 -15 -15 -15 -15 -15 -15 -15 -14 -14 -14 -14 -14 -14 -14 -14 -14 -14 -14 -15 -14 -14 -15 -14 -14 -14 -14 -14 -14 -14 -15 -14 -14 -14 -14 -14 -15 -15 -15
-17 -16 -16 -15 -15 -15 -15 -15 -15 -14 -15 -15 -15 -14 -14 -14 -15 -14 -14 -15 -14 -14 -14 -15 -14 -14 -14 -14 -14 -14 -14 -14 -14 -14 -14 -14 -14 -14 -14 -14 -15 -15 -15 -15
-16 -16 -16 -15 -15 -15 -15 -15 -14 -14 -15 -14 -14 -14 -14 -15 -14 -14 -14 -14 -14 -14 -14 -14 -14 -14 -14 -14 -14 -15 -15 -15 -14 -14 -14 -14 -14 -15 -15 -15 -15 -15 -15 -15
-17 -16 -15 -15 -15 -15 -15 -15 -14 -14 -14 -14 -14 -14 -14 -14 -14 -14 -14 -14 -14 -14 -14 -14 -15 -15 -15 -15 -15 -15 -15 -15 -15 -14 -14 -15 -15 -15 -15 -15 -15 -15 -15 -16
-17 -16 -16 -15 -15 -15 -14 -14 -14 -14 -14 -14 -14 -14 -14 -14 -14 -14 -14 -14 -14 -14 -14 -15 -15 -15 -15 -15 -15 -15 -15 -15 -15 -14 -15 -15 -15 -15 -15 -15 -15 -16 -16 -16
-17 -17 -16 -15 -15 -15 -15 -14 -14 -14 -14 -14 -14 -14 -14 -14 -14 -14 -14 -14 -15 -15 -15 -15 -15 -15 -15 -15 -15 -15 -15 -15 -15 -15 -15 -15 -15 -15 -15 -15 -15 -16 -16 -16
-18 -17 -16 -16 -15 -15 -15 -15 -15 -15 -15 -15 -14 -14 -14 -14 -14 -14 -14 -15 -15 -15 -15 -15 -14 -14 -14 -14 -15 -15 -15 -15 -15 -15 -15 -15 -15 -15 -16 -15 -16 -16 -16 -16
-18 -18 -17 -16 -16 -15 -15 -15 -15 -15 -15 -14 -14 -14 -14 -14 -14 -14 -14 -14 -15 -15 -15 -15 -15 -14 -14 -14 -15 -15 -15 -15 -15 -15 -15 -15 -15 -15 -15 -15 -16 -16 -16 -17
-19 -19 -18 -17 -16 -16 -15 -15 -15 -15 -15 -15 -14 -14 -14 -14 -14 -14 -14 -14 -14 -14 -15 -15 -14 -14 -14 -14 -14 -15 -15 -15 -15 -15 -15 -15 -15 -15 -15 -16 -16 -16 -16 -17
-19 -19 -19 -18 -17 -16 -15 -15 -15 -15 -15 -15 -14 -14 -14 -14 -14 -14 -14 -14 -14 -14 -14 -14 -14 -15 -14 -14 -15 -15 -15 -15 -15 -15 -16 -15 -16 -15 -16 -16 -16 -16 -17 -17
-19 -19 -19 -18 -18 -17 -16 -16 -15 -15 -15 -15 -15 -14 -14 -14 -14 -14 -14 -14 -14 -14 -14 -15 -15 -15 -14 -15 -15 -15 -15 -16 -16 -16 -16 -16 -16 -16 -16 -16 -16 -16 -17 -18
-19 -19 -19 -18 -18 -17 -17 -16 -16 -15 -15 -15 -15 -14 -14 -14 -14 -14 -14 -14 -14 -14 -15 -15 -15 -15 -15 -15 -15 -15 -16 -16 -16 -16 -16 -16 -16 -16 -16 -16 -16 -17 -18 -18
-19 -19 -19 -19 -18 -18 -17 -17 -16 -16 -16 -15 -15 -15 -15 -14 -14 -14 -15 -15 -15 -15 -16 -16 -16 -16 -16 -15 -15 -16 -16 -16 -16 -16 -16 -16 -16 -16 -17 -17 -17 -18 -18 -19
-19 -19 -19 -19 -18 -18 -18 -17 -17 -17 -16 -16 -16 -16 -15 -15 -15 -15 -15 -15 -16 -16 -16 -17 -17 -16 -16 -15 -15 -16 -17 -17 -17 -16 -17 -17 -17 -17 -17 -18 -18 -18 -19 -19
-19 -19 -19 -19 -19 -18 -18 -18 -18 -18 -17 -17 -17 -17 -16 -16 -16 -17 -17 -17 -17 -17 -17 -16 -16 -17 -16 -15 -15 -17 -18 -18 -17 -17 -18 -18 -18 -18 -18 -19 -19 -19 -19 -20
-20 -19 -19 -19 -19 -19 -18 -18 -18 -18 -18 -17 -17 -17 -17 -17 -17 -17 -18 -18 -17 -17 -17 -16 -17 -17 -17 -16 -16 -18 -18 -17 -17 -18 -18 -18 -19 -19 -19 -19 -19 -20 -20 -20
-20 -20 -19 -19 -19 -19 -19 -18 -18 -18 -18 -18 -17 -17 -18 -18 -18 -18 -18 -18 -18 -17 -17 -17 -17 -17 -17 -16 -18 -18 -18 -18 -18 -18 -19 -19 -19 -19 -19 -20 -20 -20 -20 -20
-20 -19 -20 -19 -19 -19 -19 -19 -19 -18 -18 -17 -17 -18 -18 -18 -19 -19 -19 -19 -19 -18 -17 -18 -17 -17 -17 -18 -18 -18 -18 -18 -18 -19 -19 -19 -19 -19 -20 -20 -20 -21 -21 -21
-20 -20 -19 -19 -19 -19 -19 -19 -18 -18 -18 -17 -17 -18 -18 -18 -19 -19 -19 -19 -19 -18 -18 -18 -17 -17 -18 -19 -19 -19 -19 -19 -19 -19 -20 -19 -20 -20 -21 -20 -21 -21 -21 -21
-20 -20 -20 -19 -19 -19 -19 -19 -18 -18 -18 -18 -18 -18 -19 -19 -19 -19 -19 -19 -19 -18 -18 -18 -18 -17 -19 -19 -19 -19 -19 -19 -20 -20 -20 -20 -20 -20 -21 -21 -21 -22 -22 -22
-20 -20 -20 -20 -20 -20 -19 -19 -19 -18 -18 -18 -18 -19 -20 -20 -20 -20 -20 -20 -19 -19 -18 -19 -18 -18 -19 -19 -19 -19 -19 -19 -20 -20 -20 -20 -21 -21 -21 -22 -22 -23 -23 -24
-20 -20 -20 -20 -20 -20 -19 -18 -18 -18 -19 -19 -19 -20 -20 -20 -20 -20 -20 -20 -19 -19 -19 -19 -19 -19 -19 -19 -19 -19 -19 -20 -20 -20 -20 -21 -21 -22 -23 -23 -23 -24 -24 -25
-20 -20 -20 -20 -20 -19 -19 -19 -19 -19 -19 -19 -19 -19 -19 -20 -20 -20 -20 -20 -20 -20 -19 -19 -19 -20 -20 -20 -20 -20 -20 -20 -20 -21 -21 -22 -23 -23 -24 -24 -24 -25 -25 -26
-20 -20 -20 -20 -20 -20 -20 -20 -19 -19 -19 -19 -19 -19 -19 -19 -20 -20 -20 -20 -21 -20 -20 -20 -20 -20 -21 -21 -21 -21 -21 -22 -22 -23 -23 -24 -24 -24 -25 -25 -25 -26 -26 -26
-20 -20 -20 -20 -20 -20 -20 -20 -20 -20 -20 -20 -20 -21 -21 -21 -21 -21 -21 -22 -22 -22 -22 -22 -22 -22 -22 -23 -23 -23 -23 -23 -24 -24 -25 -25 -25 -25 -26 -26 -26 -27 -27 -28
-22 -22 -22 -22 -22 -22 -22 -22 -22 -21 -21 -21 -21 -21 -22 -22 -22 -22 -22 -22 -23 -23 -23 -23 -23 -23 -24 -24 -24 -25 -25 -25 -25 -25 -25 -26 -26 -26 -27 -27 -28 -29 -29 -30

GFSNW_500_temp_033.txt.gz
Temp
-17 -17 -16 -16 -16 -16 -16 -15 -15 -15 -15 -15 -15 -15 -15 -15 -15 -14 -14 -15 -15 -15 -14 -14 -15 -15 -15 -15 -15 -15 -15 -15 -14 -15 -15 -15 -15 -14 -14 -14 -14 -14 -14 -14
-18 -17 -16 -16 -16 -16 -16 -15 -15 -15 -15 -15 -15 -15 -15 -15 -15 -14 -15 -15 -15 -15 -15 -15 -15 -15 -15 -15 -15 -15 -14 -15 -15 -15 -15 -15 -15 -15 -15 -14 -14 -14 -14 -15
-18 -17 -17 -16 -16 -16 -16 -16 -15 -15 -15 -15 -15 -15 -15 -15 -15 -15 -15 -15 -15 -15 -15 -15 -15 -15 -15 -15 -14 -15 -15 -15 -15 -15 -15 -15 -15 -15 -15 -14 -14 -15 -15 -15
-18 -17 -17 -16 -16 -16 -15 -15 -15 -15 -15 -15 -15 -15 -15 -15 -15 -15 -15 -15 -15 -14 -15 -15 -15 -15 -15 -15 -15 -15 -15 -15 -15 -15 -15 -15 -15 -15 -15 -15 -15 -15 -15 -15
-18 -17 -17 -16 -16 -16 -15 -15 -15 -15 -15 -15 -15 -14 -14 -15 -15 -15 -15 -15 -14 -15 -15 -15 -15 -15 -15 -15 -15 -15 -15 -15 -15 -15 -15 -15 -15 -15 -15 -15 -15 -15 -15 -15
-18 -17 -17 -16 -16 -16 -15 -15 -15 -15 -15 -15 -15 -14 -15 -15 -15 -15 -15 -15 -14 -15 -15 -15 -15 -15 -15 -15 -15 -15 -15 -15 -15 -15 -15 -15 -14 -15 -15 -15 -15 -15 -15 -15
-18 -17 -17 -16 -16 -16 -15 -15 -15 -15 -15 -15 -15 -15 -15 -15 -15 -15 -15 -14 -15 -15 -15 -15 -15 -15 -15 -15 -15 -15 -15 -15 -15 -15 -15 -15 -15 -15 -15 -15 -15 -15 -15 -16
-18 -17 -17 -17 -16 -15 -15 -15 -15 -15 -15 -15 -15 -15 -15 -14 -14 -14 -14 -15 -14 -15 -15 -15 -15 -15 -15 -15 -15 -15 -15 -15 -15 -15 -15 -15 -15 -15 -15 -15 -15 -16 -16 -16
-18 -17 -17 -17 -16 -15 -15 -15 -15 -15 -15 -15 -15 -15 -14 -14 -14 -15 -15 -14 -14 -14 -14 -15 -15 -15 -15 -15 -15 -15 -15 -15 -15 -15 -15 -15 -15 -15 -16 -15 -15 -16 -16 -16
-18 -18 -17 -17 -16 -16 -16 -15 -15 -15 -15 -15 -15 -15 -15 -14 -14 -14 -14 -14 -14 -14 -14 -14 -14 -14 -14 -14 -14 -15 -15 -15 -15 -15 -15 -15 -15 -16 -16 -16 -15 -16 -16 -16
-19 -18 -18 -17 -17 -17 -16 -16 -15 -15 -15 -15 -15 -15 -15 -15 -15 -14 -14 -14 -14 -14 -14 -14 -14 -14 -14 -14 -14 -14 -15 -15 -15 -15 -15 -15 -16 -16 -16 -16 -16 -16 -16 -16
-19 -19 -18 -18 -17 -17 -16 -16 -15 -15 -15 -15 -15 -15 -15 -15 -15 -14 -14 -14 -14 -14 -14 -14 -14 -14 -14 -14 -14 -15 -15 -15 -15 -16 -16 -16 -16 -16 -16 -16 -16 -16 -16 -17
-19 -19 -19 -18 -18 -17 -17 -16 -16 -15 -15 -15 -15 -15 -15 -15 -15 -15 -14 -14 -14 -14 -14 -14 -14 -14 -14 -15 -15 -15 -16 -16 -15 -16 -16 -16 -16 -16 -16 -16 -16 -17 -17 -17
-20 -19 -19 -19 -19 -18 -17 -17 -16 -16 -16 -15 -15 -15 -15 -15 -15 -15 -15 -15 -14 -15 -14 -14 -14 -15 -15 -15 -15 -15 -16 -16 -16 -16 -16 -16 -16 -17 -17 -17 -17 -17 -18 -18
-20 -20 -19 -19 -19 -19 -18 -17 -17 -17 -16 -16 -16 -15 -15 -15 -15 -15 -15 -15 -15 -15 -15 -15 -15 -15 -15 -15 -15 -16 -17 -17 -17 -16 -16 -16 -17 -17 -17 -17 -18 -18 -19 -19
-20 -19 -19 -19 -19 -19 -18 -18 -18 -17 -17 -16 -16 -16 -15 -16 -16 -15 -16 -16 -16 -16 -16 -16 -16 -16 -16 -15 -15 -17 -18 -18 -17 -17 -17 -17 -17 -18 -18 -18 -19 -19 -19 -19
-19 -19 -19 -19 -19 -19 -18 -18 -18 -18 -17 -17 -17 -16 -16 -17 -17 -17 -17 -17 -17 -17 -17 -17 -17 -17 -17 -16 -16 -18 -18 -18 -18 -18 -18 -18 -18 -18 -19 -19 -19 -20 -19 -19
-19 -19 -19 -19 -19 -19 -19 -19 -19 -18 -18 -18 -17 -17 -18 -18 -18 -18 -18 -18 -17 -17 -17 -17 -17 -17 -17 -16 -18 -18 -18 -18 -18 -18 -19 -19 -19 -19 -19 -20 -20 -20 -20 -19
-20 -20 -20 -19 -19 -19 -19 -19 -19 -19 -18 -18 -18 -18 -18 -18 -19 -19 -19 -18 -18 -18 -17 -18 -17 -17 -17 -18 -18 -18 -18 -18 -19 -19 -19 -19 -19 -19 -20 -20 -20 -20 -20 -21
-20 -20 -20 -20 -20 -20 -20 -19 -19 -18 -18 -18 -18 -19 -19 -19 -19 -19 -19 -19 -18 -18 -18 -18 -18 -17 -18 -19 -19 -19 -19 -19 -19 -19 -19 -19 -20 -20 -20 -20 -20 -20 -21 -21
-20 -20 -20 -20 -20 -20 -19 -19 -18 -18 -18 -18 -19 -19 -19 -19 -19 -19 -19 -18 -19 -18 -18 -18 -17 -18 -18 -19 -19 -19 -19 -19 -20 -20 -20 -20 -20 -20 -20 -20 -21 -21 -22 -22
-20 -20 -20 -20 -20 -20 -19 -19 -18 -18 -18 -18 -19 -19 -19 -19 -19 -19 -19 -19 -19 -18 -18 -18 -18 -18 -19 -19 -19 -19 -19 -20 -20 -20 -20 -20 -20 -21 -21 -21 -22 -23 -23 -24
-20 -21 -20 -20 -20 -19 -19 -18 -18 -19 -19 -19 -19 -20 -19 -19 -20 -20 -20 -20 -19 -19 -19 -18 -18 -19 -19 -19 -19 -20 -20 -20 -20 -20 -20 -20 -21 -22 -23 -23 -24 -24 -24 -24
-21 -21 -21 -20 -20 -19 -19 -19 -19 -19 -19 -19 -20 -20 -20 -20 -20 -20 -20 -20 -20 -19 -19 -19 -20 -20 -20 -20 -20 -20 -20 -20 -20 -21 -22 -23 -23 -24 -24 -24 -25 -25 -25 -26
-21 -21 -21 -20 -20 -20 -20 -20 -20 -20 -20 -20 -20 -20 -20 -20 -20 -20 -20 -20 -20 -20 -20 -20 -20 -20 -20 -21 -21 -20 -21 -21 -22 -22 -23 -24 -24 -25 -25 -25 -26 -26 -27 -27
-20 -20 -20 -20 -20 -20 -20 -20 -20 -21 -21 -21 -21 -21 -21 -21 -21 -21 -21 -21 -21 -21 -22 -21 -22 -22 -23 -23 -23 -23 -23 -24 -24 -24 -25 -25 -26 -26 -26 -26 -26 -27 -28 -28
-21 -21 -21 -21 -20 -20 -20 -20 -21 -21 -21 -21 -21 -21 -22 -21 -22 -22 -22 -22 -23 -23 -23 -23 -23 -24 -24 -25 -25 -25 -25 -25 -26 -25 -26 -26 -26 -26 -28 -28 -28 -28 -29 -29

GFSNW_500_temp_036.txt.gz
Temp
-18 -18 -18 -18 -17 -16 -16 -16 -16 -16 -16 -15 -15 -16 -16 -15 -15 -15 -15 -15 -15 -15 -15 -15 -15 -15 -15 -15 -15 -15 -15 -15 -15 -15 -15 -15 -15 -15 -15 -15 -14 -14 -14 -14
-18 -18 -18 -17 -17 -17 -16 -16 -16 -16 -16 -15 -15 -15 -15 -15 -15 -15 -15 -15 -15 -15 -15 -15 -15 -15 -15 -15 -15 -15 -15 -15 -15 -15 -15 -15 -15 -15 -15 -15 -15 -15 -14 -14
-18 -19 -18 -18 -17 -17 -17 -16 -16 -16 -15 -15 -15 -15 -15 -15 -15 -15 -15 -15 -15 -15 -15 -15 -15 -15 -15 -15 -15 -15 -15 -15 -15 -15 -15 -15 -15 -15 -15 -15 -15 -14 -15 -14
-18 -18 -18 -18 -17 -17 -17 -16 -16 -15 -15 -15 -15 -15 -15 -15 -15 -15 -15 -15 -15 -15 -15 -15 -15 -15 -15 -15 -15 -15 -15 -15 -15 -15 -15 -15 -15 -15 -15 -15 -15 -14 -15 -15
-18 -19 -18 -18 -17 -17 -16 -16 -15 -15 -15 -16 -15 -15 -15 -15 -15 -15 -15 -15 -15 -15 -15 -15 -15 -15 -15 -15 -15 -15 -15 -15 -15 -15 -15 -15 -15 -15 -15 -15 -15 -15 -15 -15
-18 -18 -18 -18 -17 -17 -16 -16 -16 -15 -16 -15 -15 -15 -15 -15 -15 -15 -15 -15 -15 -15 -15 -15 -15 -15 -15 -15 -15 -15 -15 -15 -15 -15 -15 -15 -14 -15 -15 -15 -15 -15 -15 -15
-18 -19 -18 -18 -17 -17 -17 -16 -16 -16 -15 -16 -15 -15 -15 -15 -16 -15 -15 -15 -15 -15 -15 -15 -15 -15 -15 -15 -15 -15 -15 -15 -15 -15 -15 -14 -14 -15 -15 -15 -15 -15 -15 -15
-18 -19 -18 -18 -18 -17 -17 -17 -16 -16 -16 -16 -16 -15 -15 -15 -15 -15 -15 -15 -15 -15 -15 -15 -15 -15 -15 -15 -15 -15 -15 -15 -15 -15 -15 -14 -14 -15 -15 -15 -15 -15 -15 -16
-19 -19 -18 -18 -18 -17 -17 -17 -16 -16 -16 -16 -16 -15 -15 -15 -15 -15 -15 -15 -15 -15 -15 -15 -15 -15 -15 -15 -15 -15 -15 -15 -15 -15 -14 -14 -14 -15 -15 -15 -15 -16 -16 -16
-19 -19 -18 -19 -18 -17 -17 -17 -16 -16 -16 -16 -15 -15 -15 -15 -15 -15 -15 -15 -15 -15 -15 -14 -14 -15 -15 -14 -15 -15 -15 -15 -15 -15 -14 -14 -15 -15 -16 -16 -16 -15 -16 -16
-19 -18 -19 -18 -17 -17 -17 -17 -16 -16 -16 -16 -15 -15 -15 -15 -15 -15 -15 -15 -15 -14 -14 -14 -14 -14 -14 -14 -14 -14 -15 -15 -15 -15 -15 -15 -15 -16 -16 -16 -16 -16 -16 -16
-19 -19 -18 -18 -17 -18 -18 -17 -17 -16 -16 -16 -16 -16 -15 -15 -15 -15 -15 -15 -15 -14 -14 -14 -14 -14 -14 -14 -14 -15 -14 -15 -15 -15 -15 -16 -15 -16 -16 -16 -16 -16 -16 -17
-18 -19 -18 -18 -18 -17 -17 -17 -17 -16 -16 -16 -16 -15 -15 -15 -15 -15 -15 -15 -15 -15 -14 -14 -14 -14 -14 -14 -14 -14 -15 -15 -15 -16 -16 -16 -16 -16 -16 -16 -16 -17 -17 -17
-20 -19 -18 -18 -18 -18 -18 -18 -17 -16 -16 -16 -16 -16 -15 -15 -15 -15 -15 -15 -15 -15 -15 -14 -14 -14 -14 -14 -14 -14 -16 -16 -16 -16 -16 -16 -17 -17 -17 -17 -17 -17 -18 -18
-19 -19 -19 -19 -19 -19 -19 -18 -17 -17 -16 -16 -16 -16 -16 -16 -15 -15 -15 -15 -15 -15 -15 -15 -15 -14 -15 -14 -14 -15 -17 -17 -16 -16 -17 -17 -17 -18 -18 -18 -18 -18 -18 -19
-18 -20 -19 -19 -19 -19 -19 -19 -18 -18 -17 -17 -16 -16 -16 -16 -16 -16 -16 -15 -15 -15 -15 -15 -15 -15 -15 -15 -15 -18 -17 -17 -17 -17 -17 -17 -18 -18 -18 -18 -19 -19 -19 -19
-20 -20 -20 -20 -20 -19 -19 -19 -19 -18 -18 -17 -17 -16 -16 -16 -16 -16 -16 -16 -16 -16 -16 -16 -16 -16 -16 -16 -16 -18 -18 -18 -18 -18 -18 -18 -18 -18 -19 -19 -19 -19 -19 -20
-20 -20 -20 -20 -20 -20 -19 -19 -19 -18 -18 -17 -17 -17 -17 -17 -17 -17 -17 -17 -17 -16 -16 -17 -17 -17 -17 -16 -18 -18 -18 -18 -18 -18 -18 -18 -19 -19 -19 -20 -20 -20 -20 -20
-20 -20 -20 -20 -20 -20 -19 -19 -19 -19 -18 -18 -18 -18 -18 -18 -18 -18 -18 -18 -17 -17 -17 -18 -18 -17 -17 -18 -18 -18 -18 -18 -18 -18 -19 -19 -19 -19 -20 -20 -20 -20 -21 -21
-20 -20 -20 -20 -19 -19 -19 -19 -19 -19 -19 -18 -19 -19 -19 -19 -19 -19 -19 -18 -18 -17 -18 -18 -18 -17 -18 -19 -18 -19 -19 -19 -19 -19 -19 -19 -20 -20 -20 -20 -20 -21 -21 -21
-19 -20 -20 -20 -20 -20 -19 -19 -19 -19 -19 -19 -19 -20 -20 -19 -19 -19 -19 -19 -18 -18 -18 -18 -18 -18 -19 -19 -19 -19 -19 -19 -20 -20 -20 -20 -20 -20 -20 -21 -21 -21 -22 -23
-20 -20 -20 -20 -20 -20 -19 -19 -19 -19 -19 -19 -20 -20 -20 -19 -19 -19 -19 -19 -18 -18 -18 -18 -18 -18 -19 -19 -19 -19 -20 -20 -20 -20 -20 -20 -21 -21 -21 -21 -21 -22 -24 -24
-20 -20 -20 -20 -20 -20 -19 -19 -19 -19 -19 -20 -19 -19 -19 -19 -20 -19 -19 -19 -19 -19 -18 -18 -18 -19 -19 -20 -20 -20 -20 -20 -20 -20 -21 -21 -21 -22 -22 -23 -24 -25 -25 -25
-20 -20 -20 -20 -20 -19 -19 -20 -20 -20 -19 -19 -19 -20 -20 -20 -20 -20 -20 -20 -20 -19 -19 -19 -20 -20 -20 -20 -20 -20 -20 -20 -21 -21 -22 -22 -23 -24 -25 -25 -25 -25 -26 -26
-21 -21 -20 -20 -20 -20 -20 -20 -20 -20 -20 -20 -20 -20 -20 -20 -20 -20 -20 -20 -20 -20 -20 -20 -20 -20 -21 -21 -21 -21 -22 -22 -23 -23 -24 -24 -25 -25 -25 -26 -26 -27 -27 -27
-21 -21 -21 -20 -20 -20 -20 -20 -20 -20 -20 -20 -20 -20 -20 -21 -20 -20 -20 -21 -21 -21 -21 -21 -22 -22 -22 -22 -23 -23 -23 -24 -24 -25 -25 -25 -26 -27 -27 -27 -28 -28 -29 -29
-21 -21 -21 -21 -21 -20 -20 -20 -20 -20 -20 -20 -20 -20 -21 -21 -21 -21 -22 -22 -22 -22 -22 -23 -23 -23 -23 -24 -24 -25 -25 -26 -26 -26 -27 -27 -27 -28 -28 -29 -29 -29 -29 -29

GFSNW_500_temp_042.txt.gz
Temp
-17 -17 -17 -17 -16 -16 -15 -16 -16 -17 -17 -16 -16 -16 -16 -16 -16 -16 -16 -16 -16 -16 -16 -16 -16 -16 -15 -15 -16 -16 -16 -15 -16 -16 -16 -15 -15 -15 -15 -15 -15 -15 -15 -15
-18 -18 -17 -17 -17 -16 -17 -18 -17 -17 -17 -16 -16 -17 -17 -16 -16 -16 -16 -16 -16 -16 -16 -15 -15 -15 -15 -15 -15 -15 -15 -15 -15 -15 -15 -15 -15 -15 -15 -15 -15 -15 -15 -15
-18 -18 -17 -17 -17 -18 -19 -19 -18 -17 -17 -17 -17 -17 -17 -16 -16 -16 -16 -16 -15 -15 -15 -15 -15 -15 -15 -15 -15 -15 -15 -15 -15 -15 -15 -15 -15 -15 -15 -15 -15 -15 -15 -15
-18 -18 -18 -17 -18 -19 -19 -19 -18 -17 -16 -17 -17 -18 -17 -16 -16 -16 -16 -16 -16 -15 -15 -15 -15 -15 -15 -15 -15 -15 -15 -15 -15 -15 -15 -15 -15 -15 -15 -15 -15 -15 -15 -15
-18 -19 -19 -19 -19 -19 -19 -18 -17 -17 -17 -17 -18 -18 -17 -17 -16 -16 -16 -16 -16 -16 -16 -15 -15 -15 -15 -15 -15 -15 -15 -15 -15 -15 -15 -15 -15 -15 -15 -15 -15 -15 -15 -15
-19 -19 -18 -19 -19 -19 -18 -17 -17 -17 -17 -17 -18 -17 -17 -17 -16 -16 -16 -16 -16 -16 -16 -15 -15 -15 -15 -15 -15 -15 -15 -15 -15 -15 -15 -15 -14 -15 -15 -15 -15 -15 -15 -15
-18 -19 -19 -19 -18 -18 -18 -17 -17 -18 -18 -18 -18 -17 -17 -17 -16 -16 -16 -16 -16 -16 -15 -15 -15 -15 -16 -16 -15 -15 -15 -15 -15 -15 -15 -14 -15 -15 -15 -15 -15 -15 -15 -15
-18 -19 -19 -19 -18 -18 -18 -18 -18 -18 -18 -18 -18 -17 -17 -17 -17 -16 -16 -16 -16 -15 -15 -15 -15 -15 -15 -16 -16 -15 -15 -15 -15 -15 -15 -14 -14 -14 -15 -15 -15 -15 -15 -15
-19 -19 -18 -18 -18 -18 -18 -18 -18 -18 -19 -18 -18 -17 -17 -17 -16 -16 -16 -16 -15 -15 -15 -15 -15 -15 -16 -15 -15 -16 -15 -15 -15 -15 -14 -14 -14 -15 -15 -15 -14 -15 -15 -15
-19 -18 -18 -19 -19 -19 -18 -18 -19 -19 -19 -19 -18 -17 -17 -17 -16 -16 -16 -16 -16 -15 -15 -15 -15 -15 -15 -15 -15 -16 -16 -15 -15 -15 -15 -14 -15 -14 -14 -14 -14 -14 -15 -15
-18 -19 -19 -19 -19 -19 -18 -18 -19 -18 -18 -18 -18 -17 -17 -17 -16 -17 -16 -16 -16 -16 -15 -15 -15 -15 -15 -15 -15 -15 -15 -15 -15 -15 -15 -14 -15 -14 -14 -14 -15 -15 -15 -16
-19 -19 -19 -19 -19 -19 -18 -18 -19 -19 -18 -18 -18 -17 -17 -17 -17 -17 -17 -16 -16 -15 -15 -15 -15 -15 -15 -15 -15 -15 -15 -15 -15 -15 -15 -15 -14 -14 -14 -15 -15 -16 -16 -17
-19 -19 -19 -19 -19 -18 -18 -19 -19 -19 -18 -18 -18 -17 -17 -17 -17 -17 -17 -16 -16 -15 -15 -15 -15 -15 -15 -15 -15 -15 -15 -15 -15 -15 -15 -15 -15 -15 -15 -15 -16 -17 -17 -17
-19 -19 -19 -19 -19 -19 -19 -19 -19 -18 -18 -18 -17 -17 -17 -17 -17 -17 -16 -16 -16 -16 -16 -15 -15 -15 -15 -15 -15 -15 -15 -15 -15 -15 -15 -15 -16 -16 -16 -16 -17 -17 -17 -18
-19 -19 -19 -19 -19 -19 -19 -18 -18 -18 -18 -18 -17 -17 -17 -17 -17 -17 -16 -16 -16 -16 -16 -16 -15 -15 -15 -15 -15 -15 -15 -15 -15 -15 -16 -16 -16 -16 -17 -17 -17 -18 -18 -18
-19 -19 -20 -19 -19 -20 -19 -18 -18 -18 -18 -18 -17 -17 -17 -17 -17 -17 -16 -16 -16 -16 -16 -16 -16 -16 -16 -15 -16 -16 -16 -16 -16 -16 -17 -17 -17 -18 -18 -18 -18 -19 -19 -19
-19 -19 -19 -20 -20 -19 -19 -19 -19 -18 -18 -18 -18 -18 -17 -17 -17 -17 -17 -16 -16 -16 -16 -16 -16 -16 -16 -16 -16 -17 -17 -17 -17 -17 -18 -18 -18 -18 -18 -18 -19 -19 -19 -19
-19 -19 -20 -20 -20 -20 -20 -20 -19 -19 -19 -18 -18 -17 -18 -17 -17 -17 -17 -18 -17 -16 -16 -16 -16 -16 -16 -16 -18 -18 -18 -18 -18 -18 -18 -18 -18 -19 -19 -19 -19 -20 -20 -20
-19 -19 -19 -19 -19 -20 -19 -20 -20 -19 -19 -19 -18 -18 -18 -18 -18 -18 -18 -17 -17 -17 -17 -17 -17 -17 -17 -18 -18 -19 -18 -18 -18 -19 -19 -19 -19 -19 -19 -19 -20 -20 -20 -20
-20 -20 -20 -20 -20 -19 -20 -20 -19 -19 -19 -19 -19 -18 -18 -18 -18 -18 -18 -18 -17 -17 -17 -17 -17 -18 -19 -19 -19 -19 -19 -19 -19 -19 -19 -19 -20 -20 -20 -20 -20 -20 -21 -21
-20 -20 -20 -20 -20 -19 -20 -19 -19 -19 -19 -19 -19 -19 -19 -19 -19 -19 -18 -18 -18 -18 -18 -18 -18 -18 -19 -19 -19 -19 -19 -19 -19 -20 -20 -20 -20 -20 -20 -21 -21 -21 -22 -22
-20 -20 -20 -20 -20 -20 -19 -20 -20 -20 -20 -20 -20 -20 -20 -19 -19 -19 -19 -19 -19 -18 -19 -19 -18 -19 -19 -19 -19 -19 -20 -20 -20 -20 -20 -21 -21 -21 -21 -22 -22 -22 -22 -23
-20 -20 -20 -20 -20 -20 -20 -20 -20 -20 -20 -20 -20 -20 -20 -20 -20 -20 -20 -19 -19 -19 -19 -19 -19 -20 -20 -20 -20 -20 -20 -20 -20 -21 -21 -21 -21 -22 -22 -23 -23 -24 -24 -25
-20 -20 -20 -20 -20 -20 -20 -20 -20 -20 -20 -20 -20 -20 -20 -20 -20 -20 -19 -19 -19 -19 -19 -19 -20 -20 -20 -20 -20 -20 -20 -21 -21 -21 -21 -22 -23 -23 -24 -24 -24 -25 -25 -27
-20 -20 -20 -20 -20 -20 -20 -20 -20 -20 -20 -20 -20 -20 -20 -20 -20 -20 -20 -20 -20 -20 -20 -20 -20 -20 -20 -20 -20 -21 -21 -21 -22 -22 -23 -24 -24 -24 -24 -25 -26 -27 -28 -28
-20 -20 -20 -20 -20 -20 -20 -20 -20 -20 -20 -20 -20 -20 -20 -21 -21 -21 -21 -21 -21 -21 -21 -21 -20 -21 -21 -21 -21 -22 -22 -23 -24 -24 -24 -24 -24 -25 -25 -26 -28 -28 -29 -29
-20 -20 -20 -20 -20 -20 -20 -20 -20 -20 -21 -21 -21 -21 -21 -21 -21 -21 -21 -21 -21 -21 -21 -21 -21 -21 -22 -22 -23 -24 -24 -24 -24 -24 -24 -25 -25 -26 -27 -28 -29 -29 -30 -30

GFSNW_500_temp_048.txt.gz
Temp
-17 -17 -17 -17 -17 -17 -17 -17 -16 -16 -15 -14 -13 -13 -13 -14 -15 -15 -15 -16 -17 -16 -17 -17 -16 -17 -17 -16 -16 -16 -16 -17 -16 -15 -16 -15 -16 -16 -16 -15 -15 -15 -15 -15
-17 -17 -17 -17 -17 -17 -17 -17 -17 -16 -16 -14 -13 -13 -13 -14 -15 -15 -15 -16 -16 -16 -17 -17 -17 -17 -16 -15 -16 -16 -16 -15 -15 -16 -16 -15 -16 -16 -16 -16 -15 -15 -15 -15
-17 -16 -17 -17 -17 -18 -17 -17 -16 -16 -16 -14 -14 -13 -13 -15 -15 -15 -16 -16 -16 -16 -17 -17 -16 -16 -15 -15 -15 -15 -15 -15 -15 -15 -16 -17 -17 -16 -15 -15 -15 -15 -15 -15
-17 -17 -16 -16 -18 -18 -18 -17 -16 -16 -15 -14 -14 -13 -14 -15 -15 -16 -16 -15 -16 -16 -16 -16 -16 -16 -15 -15 -15 -16 -15 -15 -16 -16 -16 -16 -16 -16 -16 -15 -15 -15 -15 -15
-17 -17 -16 -16 -18 -18 -18 -17 -16 -16 -16 -15 -14 -14 -14 -14 -16 -16 -16 -16 -16 -16 -16 -16 -16 -16 -15 -15 -15 -15 -15 -15 -16 -15 -16 -15 -15 -15 -15 -15 -15 -15 -15 -15
-18 -17 -17 -17 -18 -19 -17 -16 -17 -16 -16 -15 -15 -14 -14 -15 -17 -16 -16 -16 -16 -16 -17 -17 -17 -16 -15 -15 -15 -15 -15 -15 -15 -15 -15 -15 -15 -15 -15 -15 -15 -15 -15 -15
-19 -18 -17 -18 -18 -19 -16 -16 -17 -17 -16 -15 -14 -15 -16 -16 -17 -17 -18 -17 -17 -17 -17 -17 -16 -16 -16 -15 -15 -16 -15 -16 -15 -15 -16 -15 -15 -15 -15 -15 -15 -16 -15 -15
-22 -18 -18 -18 -18 -18 -16 -18 -18 -18 -16 -15 -16 -16 -16 -17 -17 -17 -16 -16 -16 -16 -17 -17 -16 -16 -16 -15 -15 -16 -16 -16 -16 -16 -16 -16 -16 -15 -16 -16 -16 -15 -15 -15
-23 -21 -18 -19 -19 -18 -17 -17 -17 -17 -17 -15 -15 -17 -18 -18 -18 -16 -15 -17 -17 -17 -16 -16 -16 -16 -16 -16 -15 -16 -16 -16 -16 -16 -16 -16 -16 -15 -16 -16 -16 -15 -15 -15
-24 -22 -20 -19 -19 -18 -18 -18 -18 -18 -17 -17 -17 -18 -18 -18 -17 -16 -16 -17 -17 -17 -16 -16 -16 -16 -16 -16 -15 -16 -16 -16 -16 -16 -16 -16 -16 -15 -16 -15 -15 -15 -15 -15
-25 -22 -21 -20 -20 -19 -18 -18 -17 -17 -17 -17 -18 -18 -19 -18 -17 -17 -17 -18 -17 -16 -16 -16 -16 -16 -16 -16 -16 -16 -16 -16 -16 -16 -16 -15 -15 -15 -15 -15 -15 -15 -15 -15
-23 -22 -21 -20 -19 -19 -19 -17 -17 -18 -17 -18 -18 -18 -18 -17 -17 -18 -17 -18 -17 -16 -16 -16 -16 -16 -16 -16 -15 -15 -16 -16 -15 -16 -15 -15 -15 -14 -14 -15 -15 -15 -15 -15
-23 -23 -22 -21 -20 -19 -19 -19 -18 -18 -18 -19 -19 -17 -18 -18 -18 -18 -18 -18 -17 -16 -16 -16 -16 -16 -16 -16 -16 -15 -16 -15 -15 -15 -16 -15 -14 -15 -15 -15 -15 -15 -15 -15
-21 -21 -20 -20 -20 -20 -19 -18 -18 -18 -18 -18 -18 -19 -18 -18 -18 -18 -18 -18 -17 -17 -17 -17 -16 -16 -16 -16 -16 -16 -15 -15 -16 -16 -16 -15 -15 -15 -16 -15 -15 -15 -15 -16
-21 -21 -20 -20 -20 -19 -19 -19 -19 -18 -18 -18 -19 -19 -18 -18 -19 -19 -18 -18 -18 -17 -17 -17 -16 -16 -16 -16 -16 -16 -16 -16 -16 -16 -16 -16 -15 -15 -15 -16 -16 -16 -16 -17
-21 -20 -20 -20 -19 -18 -18 -18 -18 -19 -18 -18 -19 -18 -18 -19 -19 -19 -18 -18 -18 -17 -17 -17 -16 -16 -16 -16 -16 -16 -16 -16 -16 -15 -16 -16 -16 -16 -16 -16 -16 -17 -17 -18
-20 -20 -20 -19 -19 -19 -19 -19 -18 -19 -18 -18 -18 -19 -19 -19 -19 -18 -18 -18 -17 -17 -17 -17 -17 -17 -16 -16 -16 -16 -16 -16 -16 -16 -16 -16 -16 -16 -17 -17 -17 -18 -18 -18
-20 -20 -20 -19 -19 -19 -19 -19 -19 -19 -18 -18 -18 -18 -19 -19 -19 -18 -18 -17 -17 -17 -17 -17 -17 -17 -17 -16 -16 -16 -17 -16 -17 -17 -17 -16 -17 -17 -17 -18 -18 -18 -19 -19
-20 -20 -19 -19 -18 -19 -19 -19 -19 -19 -19 -19 -19 -18 -18 -19 -18 -18 -18 -18 -17 -17 -17 -17 -17 -17 -16 -16 -17 -17 -17 -17 -17 -17 -17 -17 -18 -18 -18 -18 -19 -19 -19 -19
-20 -19 -19 -19 -19 -19 -19 -19 -19 -18 -19 -18 -18 -18 -18 -19 -18 -18 -18 -18 -17 -17 -17 -17 -17 -17 -17 -17 -17 -17 -18 -17 -17 -17 -18 -18 -18 -19 -19 -19 -19 -20 -20 -20
-19 -19 -20 -20 -19 -19 -19 -19 -19 -19 -18 -18 -18 -18 -18 -19 -19 -18 -18 -18 -18 -17 -17 -17 -17 -17 -18 -18 -18 -18 -18 -18 -18 -19 -19 -19 -19 -19 -20 -20 -20 -20 -21 -21
-20 -19 -19 -20 -20 -20 -20 -19 -19 -19 -19 -18 -18 -18 -18 -18 -18 -18 -18 -18 -18 -18 -18 -18 -17 -18 -19 -19 -19 -19 -19 -19 -19 -19 -19 -19 -20 -20 -20 -21 -21 -21 -21 -21
-20 -20 -20 -20 -20 -20 -20 -19 -19 -19 -19 -19 -19 -19 -19 -19 -19 -19 -19 -18 -18 -18 -18 -17 -18 -19 -19 -19 -19 -19 -19 -19 -19 -20 -20 -20 -20 -21 -21 -21 -21 -21 -22 -23
-20 -20 -20 -20 -20 -20 -20 -19 -19 -19 -19 -19 -19 -20 -20 -20 -20 -19 -19 -19 -19 -18 -18 -18 -19 -19 -19 -20 -20 -20 -19 -19 -20 -20 -20 -21 -21 -21 -21 -22 -22 -23 -23 -24
-20 -20 -20 -20 -20 -20 -19 -19 -19 -20 -20 -20 -20 -20 -20 -20 -20 -20 -19 -19 -19 -19 -19 -19 -20 -20 -20 -20 -20 -20 -20 -21 -21 -21 -21 -21 -21 -21 -22 -23 -23 -24 -24 -24
-20 -20 -20 -20 -20 -20 -20 -20 -20 -20 -20 -20 -20 -20 -20 -20 -20 -20 -20 -20 -19 -20 -20 -20 -20 -20 -20 -21 -21 -21 -21 -21 -21 -21 -21 -22 -22 -23 -24 -24 -24 -24 -24 -25
-20 -20 -20 -20 -20 -20 -20 -20 -20 -20 -20 -20 -20 -20 -20 -20 -20 -20 -20 -20 -20 -20 -21 -21 -21 -21 -21 -21 -21 -22 -22 -22 -22 -22 -23 -23 -24 -24 -24 -24 -25 -25 -25 -26

GFSNW_500_temp_051.txt.gz
Temp
-17 -17 -18 -18 -18 -18 -18 -18 -17 -18 -18 -17 -15 -14 -14 -13 -15 -15 -15 -14 -14 -15 -16 -17 -17 -18 -17 -17 -17 -17 -17 -16 -17 -16 -16 -15 -17 -16 -16 -16 -16 -16 -15 -15
-17 -17 -17 -18 -18 -18 -18 -17 -18 -18 -18 -17 -16 -15 -14 -14 -15 -15 -14 -15 -15 -15 -15 -17 -16 -17 -17 -17 -17 -16 -17 -16 -16 -16 -16 -16 -16 -16 -16 -16 -16 -15 -15 -15
-18 -18 -17 -18 -18 -19 -18 -17 -18 -18 -19 -16 -16 -15 -14 -14 -15 -15 -14 -15 -16 -16 -16 -17 -17 -18 -17 -17 -16 -16 -16 -16 -15 -15 -16 -16 -16 -15 -16 -16 -16 -15 -15 -15
-18 -18 -18 -18 -18 -19 -19 -18 -17 -17 -16 -15 -15 -15 -14 -14 -15 -14 -15 -14 -15 -16 -16 -16 -17 -17 -17 -16 -16 -16 -16 -15 -15 -16 -16 -16 -15 -15 -15 -16 -16 -15 -15 -16
-18 -18 -19 -18 -18 -19 -20 -17 -17 -17 -17 -16 -16 -15 -14 -14 -15 -16 -15 -14 -15 -16 -16 -16 -17 -17 -16 -16 -16 -16 -15 -15 -15 -15 -15 -15 -15 -15 -16 -16 -16 -16 -16 -16
-19 -19 -19 -18 -19 -19 -18 -16 -17 -17 -17 -17 -16 -14 -14 -14 -16 -15 -15 -16 -16 -16 -16 -16 -17 -17 -16 -16 -16 -15 -15 -15 -15 -15 -15 -15 -15 -15 -16 -16 -16 -16 -16 -15
-22 -19 -19 -19 -19 -19 -17 -16 -17 -17 -17 -17 -16 -16 -15 -15 -15 -16 -16 -17 -17 -17 -16 -16 -16 -17 -16 -16 -15 -16 -15 -15 -15 -15 -15 -15 -15 -15 -15 -16 -16 -16 -16 -15
-23 -21 -19 -19 -18 -19 -17 -17 -17 -17 -17 -16 -16 -16 -15 -16 -16 -17 -17 -17 -17 -17 -17 -16 -17 -17 -16 -16 -16 -16 -15 -15 -15 -15 -15 -15 -16 -15 -16 -16 -16 -16 -16 -16
-24 -23 -21 -19 -18 -19 -17 -18 -17 -17 -17 -16 -16 -16 -16 -16 -16 -17 -16 -16 -17 -17 -18 -17 -17 -16 -16 -16 -16 -16 -15 -16 -16 -16 -16 -15 -16 -16 -16 -16 -16 -16 -16 -16
-26 -25 -22 -19 -19 -19 -17 -17 -17 -17 -16 -16 -16 -16 -15 -16 -17 -16 -15 -15 -16 -15 -17 -17 -16 -17 -16 -16 -16 -16 -16 -15 -15 -16 -16 -16 -16 -16 -16 -16 -16 -16 -16 -15
-27 -25 -24 -20 -20 -18 -17 -16 -17 -16 -16 -17 -16 -17 -17 -17 -17 -15 -15 -16 -16 -17 -17 -18 -17 -17 -16 -16 -16 -16 -16 -16 -16 -16 -16 -16 -16 -15 -16 -16 -16 -16 -15 -15
-28 -25 -23 -20 -20 -18 -17 -16 -17 -18 -17 -18 -17 -17 -17 -17 -16 -16 -16 -17 -17 -17 -17 -18 -17 -17 -17 -16 -16 -16 -16 -16 -16 -16 -16 -15 -15 -15 -15 -16 -15 -15 -15 -15
-28 -25 -22 -20 -19 -19 -17 -19 -19 -18 -18 -18 -17 -16 -16 -17 -17 -17 -17 -17 -17 -17 -17 -17 -17 -17 -16 -16 -16 -16 -16 -16 -16 -16 -16 -15 -15 -15 -16 -15 -15 -15 -16 -16
-27 -23 -22 -20 -19 -19 -19 -18 -18 -17 -18 -18 -17 -17 -17 -17 -17 -17 -17 -18 -18 -18 -18 -18 -17 -17 -17 -17 -17 -16 -16 -16 -16 -16 -15 -15 -15 -15 -15 -16 -15 -16 -16 -16
-25 -22 -21 -20 -20 -19 -18 -18 -17 -18 -18 -18 -18 -17 -17 -17 -18 -17 -17 -17 -18 -18 -18 -18 -17 -17 -17 -17 -17 -16 -16 -16 -16 -16 -16 -16 -16 -16 -16 -16 -16 -16 -16 -16
-22 -21 -21 -20 -19 -18 -20 -18 -18 -18 -18 -17 -17 -17 -18 -18 -18 -17 -16 -18 -18 -18 -18 -18 -18 -17 -17 -17 -17 -17 -17 -16 -16 -16 -16 -16 -16 -16 -16 -16 -16 -16 -17 -17
-21 -20 -20 -19 -19 -18 -18 -18 -18 -18 -18 -18 -18 -18 -19 -18 -18 -18 -17 -17 -17 -18 -18 -18 -18 -18 -18 -17 -17 -17 -17 -17 -16 -16 -16 -16 -16 -16 -16 -16 -17 -17 -17 -18
-21 -21 -20 -19 -20 -19 -19 -19 -17 -18 -18 -18 -18 -18 -19 -19 -18 -18 -18 -17 -18 -19 -19 -18 -18 -18 -18 -17 -17 -17 -17 -17 -17 -17 -17 -17 -17 -17 -17 -17 -17 -18 -18 -18
-21 -20 -19 -20 -20 -20 -20 -19 -18 -18 -18 -18 -18 -18 -18 -18 -18 -18 -18 -19 -19 -19 -18 -18 -18 -18 -18 -17 -17 -17 -17 -17 -17 -17 -17 -17 -17 -17 -17 -18 -18 -19 -19 -19
-20 -19 -20 -19 -19 -19 -19 -18 -19 -19 -18 -18 -18 -18 -18 -19 -19 -19 -19 -19 -19 -18 -18 -18 -18 -18 -18 -17 -17 -17 -17 -17 -18 -18 -18 -18 -18 -18 -18 -19 -19 -19 -19 -19
-20 -20 -20 -19 -19 -19 -19 -19 -19 -18 -18 -18 -18 -19 -19 -19 -19 -19 -19 -19 -19 -18 -18 -18 -18 -18 -18 -18 -18 -18 -18 -18 -18 -18 -18 -18 -18 -19 -19 -19 -19 -20 -20 -20
-19 -19 -20 -19 -19 -19 -19 -19 -19 -18 -18 -19 -19 -19 -19 -19 -19 -19 -19 -19 -19 -19 -18 -18 -18 -18 -18 -18 -18 -19 -19 -19 -18 -18 -19 -19 -19 -19 -19 -20 -20 -20 -21 -21
-20 -19 -19 -19 -19 -19 -19 -19 -19 -19 -19 -18 -19 -19 -19 -18 -18 -19 -19 -19 -19 -19 -19 -18 -18 -19 -19 -19 -19 -20 -19 -19 -19 -20 -20 -20 -20 -20 -20 -21 -21 -21 -21 -21
-20 -19 -19 -19 -20 -20 -19 -19 -19 -19 -19 -19 -19 -19 -19 -19 -19 -19 -19 -19 -19 -19 -19 -19 -19 -20 -20 -20 -20 -20 -20 -20 -20 -20 -20 -20 -20 -20 -21 -21 -21 -21 -21 -22
-20 -20 -19 -20 -20 -20 -20 -20 -19 -19 -19 -19 -19 -19 -19 -19 -19 -19 -19 -19 -19 -19 -20 -20 -20 -20 -20 -20 -20 -20 -20 -20 -20 -20 -20 -21 -21 -21 -21 -21 -22 -22 -22 -23
-20 -20 -20 -20 -20 -20 -20 -20 -19 -19 -19 -19 -19 -20 -20 -20 -20 -20 -20 -20 -20 -20 -20 -20 -20 -20 -20 -20 -20 -20 -20 -21 -21 -21 -21 -21 -22 -22 -22 -22 -22 -23 -24 -24
-20 -20 -20 -20 -20 -20 -20 -20 -19 -20 -20 -20 -20 -20 -20 -20 -20 -20 -20 -20 -20 -20 -20 -20 -20 -20 -21 -21 -21 -21 -21 -21 -21 -22 -22 -22 -22 -22 -23 -24 -24 -25 -25 -25

GFSNW_500_temp_054.txt.gz
Temp
-18 -18 -17 -18 -19 -19 -19 -18 -17 -18 -18 -17 -15 -12 -13 -14 -15 -14 -14 -14 -13 -14 -14 -14 -14 -14 -15 -16 -16 -18 -18 -18 -18 -17 -17 -16 -16 -16 -16 -16 -16 -16 -15 -15
-18 -18 -18 -18 -19 -19 -19 -18 -18 -18 -19 -16 -14 -13 -13 -15 -15 -15 -14 -14 -14 -14 -15 -15 -15 -15 -15 -16 -16 -17 -17 -17 -17 -17 -17 -17 -16 -16 -15 -16 -16 -16 -16 -15
-18 -19 -18 -18 -18 -20 -20 -19 -19 -19 -19 -15 -15 -15 -14 -14 -16 -15 -14 -14 -14 -15 -14 -15 -15 -15 -16 -16 -17 -17 -17 -17 -17 -16 -16 -17 -16 -16 -16 -16 -16 -16 -15 -15
-19 -19 -19 -19 -19 -20 -20 -20 -19 -17 -17 -15 -14 -14 -14 -15 -16 -15 -15 -14 -14 -15 -15 -15 -15 -15 -16 -16 -17 -17 -17 -17 -17 -16 -16 -16 -16 -16 -16 -16 -16 -16 -16 -16
-21 -19 -20 -19 -19 -20 -21 -20 -18 -17 -16 -17 -16 -14 -13 -14 -16 -16 -15 -14 -15 -15 -15 -15 -15 -15 -16 -16 -17 -17 -17 -17 -17 -16 -16 -16 -16 -16 -16 -16 -17 -16 -16 -16
-22 -21 -20 -20 -20 -21 -20 -19 -18 -17 -17 -17 -16 -14 -14 -15 -16 -16 -16 -15 -16 -15 -16 -16 -16 -16 -16 -16 -16 -16 -17 -17 -16 -16 -16 -16 -15 -15 -16 -16 -16 -16 -16 -16
-23 -22 -21 -21 -21 -20 -20 -18 -18 -17 -17 -17 -15 -16 -16 -16 -16 -16 -16 -15 -15 -16 -17 -17 -16 -16 -16 -16 -16 -16 -16 -16 -16 -16 -16 -15 -15 -16 -15 -16 -16 -16 -16 -16
-24 -22 -23 -22 -22 -21 -20 -19 -18 -17 -17 -16 -16 -17 -16 -17 -17 -17 -16 -16 -15 -18 -17 -17 -17 -16 -17 -16 -16 -16 -16 -16 -16 -16 -16 -15 -15 -16 -16 -16 -16 -16 -16 -16
-24 -23 -23 -23 -21 -20 -20 -19 -18 -17 -17 -16 -17 -17 -17 -17 -17 -17 -16 -17 -16 -16 -16 -17 -17 -16 -16 -16 -16 -17 -16 -16 -16 -16 -15 -15 -16 -16 -16 -16 -16 -16 -17 -17
-25 -25 -23 -24 -21 -20 -20 -20 -18 -17 -17 -17 -17 -17 -17 -17 -18 -17 -16 -16 -16 -16 -15 -16 -17 -16 -16 -17 -17 -17 -16 -16 -16 -16 -15 -15 -16 -16 -16 -16 -16 -17 -17 -17
-25 -25 -24 -23 -21 -21 -20 -20 -18 -17 -17 -18 -17 -17 -17 -18 -18 -16 -16 -16 -15 -16 -16 -16 -17 -17 -16 -17 -17 -17 -16 -16 -16 -16 -15 -15 -16 -16 -16 -17 -17 -17 -17 -16
-26 -26 -25 -23 -21 -21 -20 -19 -18 -17 -17 -18 -18 -17 -17 -17 -17 -17 -16 -16 -16 -16 -16 -16 -17 -17 -17 -17 -17 -17 -16 -16 -16 -16 -15 -16 -16 -16 -16 -17 -17 -17 -16 -16
-28 -28 -27 -23 -22 -21 -20 -19 -17 -17 -17 -19 -18 -18 -17 -17 -17 -16 -16 -16 -16 -17 -17 -18 -17 -16 -17 -18 -17 -17 -17 -16 -16 -16 -16 -16 -16 -16 -17 -17 -16 -16 -16 -16
-28 -28 -26 -24 -23 -21 -20 -18 -18 -17 -18 -18 -18 -18 -17 -17 -16 -16 -15 -17 -18 -17 -17 -18 -17 -17 -17 -18 -17 -17 -17 -16 -16 -16 -16 -17 -16 -16 -16 -16 -16 -16 -16 -16
-29 -28 -25 -22 -22 -20 -19 -18 -18 -18 -19 -19 -19 -18 -18 -17 -16 -16 -16 -17 -17 -16 -17 -18 -18 -18 -18 -18 -17 -17 -16 -17 -16 -16 -16 -16 -16 -16 -16 -16 -16 -16 -16 -16
-29 -27 -23 -22 -21 -19 -18 -19 -18 -19 -20 -19 -18 -17 -17 -17 -17 -17 -16 -17 -17 -17 -18 -18 -18 -18 -18 -18 -17 -17 -17 -17 -17 -17 -17 -17 -17 -17 -17 -16 -17 -17 -17 -17
-28 -24 -22 -21 -20 -19 -18 -18 -19 -20 -19 -19 -18 -18 -17 -17 -18 -17 -17 -17 -18 -18 -17 -17 -17 -18 -18 -18 -18 -18 -18 -18 -18 -18 -17 -17 -17 -17 -17 -17 -17 -17 -17 -17
-25 -22 -21 -20 -19 -19 -20 -19 -19 -19 -18 -18 -18 -18 -17 -17 -16 -17 -17 -18 -17 -17 -16 -17 -17 -18 -19 -18 -18 -18 -18 -18 -18 -18 -18 -17 -17 -17 -17 -17 -17 -18 -18 -18
-22 -21 -20 -20 -20 -19 -19 -18 -18 -19 -18 -18 -18 -18 -18 -17 -16 -16 -17 -18 -18 -17 -17 -18 -18 -18 -18 -18 -18 -18 -18 -18 -18 -18 -18 -17 -17 -17 -17 -18 -18 -18 -18 -18
-20 -20 -20 -19 -19 -20 -20 -19 -19 -18 -19 -18 -18 -18 -18 -18 -18 -18 -18 -18 -19 -19 -19 -19 -18 -18 -18 -18 -18 -19 -18 -18 -18 -18 -18 -18 -18 -18 -18 -18 -18 -18 -19 -19
-20 -19 -19 -19 -19 -20 -19 -19 -19 -19 -18 -18 -18 -18 -19 -19 -19 -19 -19 -19 -19 -18 -18 -19 -18 -19 -19 -19 -19 -19 -19 -19 -18 -18 -18 -18 -18 -19 -19 -19 -19 -19 -20 -20
-21 -19 -19 -20 -20 -20 -20 -19 -19 -19 -18 -18 -18 -18 -18 -19 -19 -19 -19 -19 -19 -19 -18 -19 -19 -19 -19 -19 -19 -19 -19 -19 -19 -19 -19 -19 -19 -19 -19 -20 -20 -20 -20 -20
-20 -20 -20 -20 -19 -19 -19 -19 -19 -19 -19 -19 -19 -19 -19 -18 -18 -18 -19 -19 -19 -19 -19 -19 -19 -19 -20 -20 -20 -19 -19 -19 -19 -19 -19 -20 -20 -20 -20 -20 -20 -20 -21 -21
-20 -19 -19 -19 -19 -19 -19 -19 -19 -19 -19 -18 -18 -18 -18 -18 -19 -18 -19 -19 -19 -19 -19 -19 -20 -19 -19 -19 -19 -19 -19 -19 -20 -20 -20 -20 -20 -20 -20 -21 -21 -21 -22 -22
-20 -20 -19 -19 -19 -19 -19 -19 -19 -19 -19 -18 -18 -18 -19 -19 -19 -19 -19 -19 -19 -19 -20 -19 -19 -19 -19 -19 -20 -20 -21 -20 -21 -21 -21 -21 -21 -21 -21 -21 -22 -22 -22 -22
-20 -20 -20 -20 -20 -20 -19 -19 -19 -19 -19 -19 -19 -19 -19 -19 -19 -19 -19 -19 -19 -19 -19 -19 -19 -20 -20 -20 -20 -20 -20 -20 -21 -21 -21 -21 -21 -22 -22 -22 -22 -22 -22 -22
-20 -20 -19 -20 -20 -19 -19 -19 -19 -19 -19 -19 -19 -19 -19 -20 -19 -20 -20 -20 -20 -20 -20 -20 -20 -20 -20 -20 -20 -20 -20 -21 -21 -21 -22 -22 -22 -22 -22 -22 -22 -23 -23 -24

GFSNW_500_temp_057.txt.gz
Temp
-21 -18 -19 -18 -19 -19 -20 -20 -18 -19 -20 -19 -14 -13 -12 -13 -15 -15 -15 -14 -14 -13 -14 -14 -14 -14 -14 -15 -15 -15 -16 -16 -15 -15 -17 -17 -17 -16 -17 -16 -16 -16 -15 -15
-23 -20 -19 -19 -19 -20 -19 -19 -19 -19 -20 -18 -14 -13 -13 -13 -16 -16 -15 -14 -14 -13 -14 -14 -14 -14 -15 -15 -15 -15 -16 -16 -16 -16 -16 -16 -17 -17 -17 -17 -16 -15 -15 -15
-24 -22 -20 -20 -19 -20 -20 -20 -20 -20 -20 -16 -15 -14 -14 -14 -16 -17 -16 -15 -14 -14 -14 -14 -14 -14 -15 -15 -15 -16 -17 -17 -16 -16 -17 -17 -17 -17 -17 -17 -16 -15 -15 -15
-23 -24 -21 -21 -20 -21 -21 -21 -20 -19 -18 -15 -14 -15 -14 -15 -16 -16 -16 -15 -15 -14 -14 -14 -15 -15 -15 -16 -16 -16 -16 -16 -17 -17 -17 -17 -17 -17 -17 -17 -16 -16 -16 -16
-23 -23 -23 -21 -22 -21 -22 -21 -20 -18 -18 -17 -16 -15 -14 -14 -17 -17 -16 -15 -15 -15 -15 -15 -15 -15 -15 -16 -16 -17 -17 -17 -17 -17 -17 -17 -17 -17 -17 -17 -16 -16 -16 -15
-23 -23 -23 -22 -23 -23 -22 -22 -20 -18 -18 -17 -17 -14 -14 -15 -17 -17 -16 -16 -16 -15 -15 -17 -16 -15 -16 -15 -16 -17 -17 -17 -17 -16 -16 -17 -17 -16 -16 -16 -16 -16 -16 -16
-23 -23 -24 -24 -23 -23 -22 -22 -21 -19 -17 -18 -15 -15 -15 -16 -17 -17 -17 -16 -16 -16 -17 -17 -16 -16 -16 -16 -16 -17 -17 -17 -17 -16 -16 -16 -16 -16 -16 -16 -16 -16 -16 -16
-24 -23 -25 -25 -23 -24 -23 -22 -21 -20 -18 -17 -17 -16 -15 -17 -18 -18 -18 -17 -17 -17 -17 -17 -16 -16 -17 -16 -16 -16 -17 -17 -17 -16 -16 -16 -16 -16 -16 -16 -16 -16 -16 -16
-24 -24 -25 -25 -23 -24 -24 -22 -21 -20 -19 -17 -17 -17 -16 -17 -17 -19 -18 -18 -17 -17 -17 -17 -16 -16 -15 -15 -16 -16 -16 -17 -17 -16 -16 -16 -16 -16 -16 -16 -16 -16 -16 -17
-24 -24 -25 -25 -25 -25 -24 -23 -22 -20 -18 -18 -17 -16 -16 -18 -18 -18 -18 -18 -18 -17 -17 -17 -16 -16 -16 -16 -16 -16 -16 -17 -17 -17 -17 -16 -16 -16 -16 -16 -16 -17 -17 -17
-24 -24 -25 -25 -25 -24 -23 -23 -21 -20 -19 -18 -18 -17 -17 -18 -18 -18 -18 -18 -18 -17 -17 -17 -16 -16 -16 -16 -16 -16 -16 -17 -17 -17 -16 -16 -16 -16 -16 -16 -17 -17 -17 -17
-24 -24 -25 -25 -27 -24 -23 -22 -21 -20 -18 -18 -18 -17 -17 -18 -18 -18 -18 -18 -18 -17 -17 -16 -16 -16 -16 -16 -16 -16 -17 -17 -17 -17 -17 -16 -16 -17 -16 -16 -17 -17 -17 -17
-25 -25 -25 -26 -27 -24 -22 -22 -21 -19 -18 -18 -19 -19 -18 -18 -18 -18 -18 -18 -18 -18 -17 -17 -17 -17 -16 -16 -17 -17 -17 -17 -17 -17 -17 -17 -17 -17 -17 -17 -17 -17 -17 -17
-25 -25 -25 -26 -26 -23 -23 -22 -21 -20 -19 -19 -20 -19 -19 -18 -18 -18 -18 -18 -18 -18 -17 -17 -17 -17 -17 -17 -18 -17 -17 -18 -17 -17 -17 -17 -17 -17 -17 -17 -17 -17 -17 -17
-26 -26 -27 -27 -27 -23 -22 -22 -22 -21 -20 -19 -20 -20 -20 -19 -18 -18 -18 -18 -18 -17 -17 -17 -17 -17 -17 -17 -17 -16 -17 -17 -18 -18 -18 -17 -17 -17 -17 -17 -17 -17 -17 -17
-27 -28 -29 -28 -26 -23 -22 -22 -22 -21 -19 -19 -19 -20 -19 -19 -18 -18 -18 -18 -17 -18 -17 -17 -17 -17 -18 -18 -17 -16 -17 -17 -18 -18 -18 -18 -18 -17 -17 -17 -17 -17 -17 -17
-28 -28 -28 -27 -26 -22 -22 -21 -21 -20 -19 -19 -20 -19 -19 -19 -18 -18 -18 -17 -17 -18 -17 -17 -16 -17 -18 -17 -17 -17 -18 -18 -18 -18 -18 -18 -18 -18 -18 -17 -17 -17 -17 -17
-27 -28 -28 -26 -24 -22 -22 -22 -23 -21 -20 -20 -20 -20 -19 -19 -18 -18 -18 -17 -17 -17 -17 -17 -17 -17 -17 -17 -17 -17 -18 -18 -18 -18 -19 -19 -18 -18 -18 -18 -18 -17 -17 -17
-28 -28 -27 -24 -22 -22 -22 -22 -22 -20 -20 -20 -20 -19 -18 -18 -18 -18 -18 -18 -18 -17 -17 -17 -17 -17 -17 -17 -18 -18 -18 -18 -19 -19 -19 -19 -19 -19 -18 -18 -18 -18 -18 -18
-27 -25 -24 -22 -22 -22 -22 -21 -21 -20 -20 -20 -19 -19 -18 -17 -17 -17 -17 -18 -18 -17 -17 -17 -17 -17 -17 -17 -18 -18 -18 -18 -19 -18 -19 -19 -19 -19 -19 -18 -18 -18 -18 -19
-24 -23 -22 -21 -21 -21 -21 -21 -21 -20 -19 -18 -19 -19 -18 -18 -17 -17 -17 -17 -17 -17 -17 -18 -18 -18 -18 -19 -19 -19 -18 -18 -18 -18 -19 -19 -19 -19 -19 -19 -19 -19 -19 -20
-23 -22 -21 -21 -21 -21 -22 -21 -21 -19 -19 -19 -19 -19 -18 -18 -18 -18 -18 -18 -18 -18 -18 -18 -18 -18 -19 -19 -19 -19 -19 -19 -19 -19 -19 -20 -20 -20 -20 -20 -20 -20 -20 -20
-20 -21 -21 -21 -21 -21 -20 -20 -19 -19 -19 -19 -19 -19 -19 -19 -19 -19 -19 -18 -18 -19 -19 -18 -18 -19 -20 -20 -19 -19 -20 -20 -20 -20 -19 -19 -20 -20 -20 -20 -21 -21 -21 -21
-21 -21 -20 -20 -20 -20 -20 -19 -19 -19 -19 -19 -19 -19 -19 -19 -19 -19 -19 -19 -19 -19 -19 -19 -19 -19 -19 -19 -19 -19 -20 -20 -19 -19 -20 -20 -20 -20 -21 -21 -21 -21 -21 -21
-20 -20 -20 -20 -20 -20 -20 -19 -19 -19 -19 -19 -19 -18 -19 -19 -19 -19 -19 -19 -18 -18 -18 -19 -19 -19 -19 -19 -19 -19 -19 -20 -20 -20 -20 -20 -20 -21 -21 -21 -21 -21 -22 -22
-20 -20 -20 -20 -20 -20 -20 -19 -19 -19 -19 -19 -19 -19 -19 -19 -19 -19 -19 -18 -18 -19 -19 -19 -19 -19 -20 -20 -20 -20 -20 -20 -20 -20 -21 -21 -21 -21 -21 -21 -22 -22 -22 -22
-20 -20 -20 -20 -20 -20 -20 -20 -19 -19 -19 -19 -19 -19 -19 -19 -19 -19 -19 -19 -19 -19 -20 -20 -20 -20 -20 -20 -21 -21 -21 -20 -20 -20 -21 -21 -21 -21 -22 -22 -22 -22 -23 -23

GFSNW_500_temp_060.txt.gz
Temp
-23 -23 -23 -21 -19 -19 -20 -20 -18 -19 -21 -20 -16 -14 -14 -13 -15 -15 -15 -14 -14 -14 -14 -14 -14 -13 -14 -14 -14 -14 -14 -15 -15 -16 -16 -16 -16 -16 -16 -16 -15 -16 -17 -15
-22 -23 -24 -23 -21 -20 -20 -20 -19 -20 -21 -21 -15 -14 -14 -14 -16 -16 -15 -15 -15 -15 -15 -14 -14 -14 -14 -14 -14 -14 -15 -14 -15 -15 -16 -16 -16 -16 -16 -16 -16 -16 -16 -15
-22 -23 -23 -24 -23 -22 -21 -20 -20 -21 -21 -19 -17 -15 -14 -14 -16 -16 -16 -16 -15 -15 -15 -14 -14 -15 -14 -14 -14 -15 -15 -15 -15 -15 -16 -17 -17 -17 -16 -16 -16 -16 -16 -16
-23 -23 -23 -23 -24 -22 -22 -21 -20 -20 -19 -18 -15 -15 -14 -15 -16 -16 -16 -16 -15 -16 -15 -15 -15 -15 -15 -15 -15 -15 -15 -15 -16 -16 -17 -17 -17 -17 -17 -16 -16 -16 -16 -16
-23 -23 -23 -23 -24 -24 -23 -23 -20 -20 -19 -18 -17 -15 -14 -14 -17 -17 -16 -16 -17 -17 -16 -16 -16 -16 -16 -15 -16 -16 -16 -16 -16 -17 -17 -17 -17 -17 -16 -16 -16 -15 -16 -15
-23 -23 -23 -23 -24 -25 -23 -23 -21 -21 -19 -19 -18 -15 -14 -14 -17 -16 -17 -17 -18 -17 -17 -17 -17 -17 -16 -15 -14 -16 -17 -17 -17 -17 -17 -17 -17 -16 -16 -16 -16 -16 -15 -16
-23 -23 -23 -23 -24 -24 -23 -22 -22 -21 -20 -20 -17 -17 -16 -15 -17 -17 -18 -18 -19 -18 -18 -18 -18 -17 -16 -16 -16 -16 -16 -17 -17 -17 -17 -16 -15 -16 -16 -16 -16 -15 -15 -15
-23 -23 -24 -23 -23 -24 -24 -23 -23 -22 -20 -19 -18 -17 -16 -17 -18 -18 -19 -19 -18 -19 -17 -18 -18 -17 -16 -16 -17 -16 -16 -17 -17 -17 -16 -16 -15 -15 -16 -16 -15 -15 -15 -16
-23 -23 -24 -23 -24 -24 -25 -24 -22 -22 -21 -19 -19 -18 -17 -16 -18 -19 -18 -19 -19 -19 -19 -17 -17 -17 -17 -17 -18 -17 -16 -17 -18 -16 -16 -15 -16 -16 -16 -16 -15 -16 -16 -16
-23 -24 -24 -24 -24 -24 -24 -24 -23 -23 -22 -20 -19 -18 -17 -17 -18 -18 -19 -19 -19 -20 -19 -18 -17 -17 -17 -17 -17 -16 -16 -17 -16 -17 -17 -16 -16 -17 -16 -16 -16 -16 -16 -16
-24 -24 -24 -24 -24 -25 -25 -25 -24 -23 -22 -20 -19 -19 -18 -18 -18 -19 -19 -20 -19 -19 -18 -18 -18 -17 -18 -17 -17 -17 -17 -17 -17 -17 -16 -16 -17 -17 -17 -16 -16 -16 -16 -16
-24 -24 -24 -24 -24 -25 -26 -26 -27 -24 -22 -20 -20 -19 -18 -19 -19 -19 -19 -19 -20 -19 -18 -18 -17 -17 -17 -17 -17 -17 -17 -16 -17 -17 -16 -17 -17 -17 -17 -17 -16 -16 -16 -16
-25 -25 -24 -24 -25 -25 -26 -27 -27 -23 -22 -21 -20 -20 -20 -19 -19 -19 -19 -19 -19 -19 -19 -18 -18 -17 -17 -17 -17 -17 -17 -17 -17 -17 -16 -17 -17 -17 -17 -17 -16 -16 -16 -17
-25 -25 -24 -24 -24 -25 -27 -27 -27 -23 -22 -22 -21 -21 -21 -20 -20 -19 -19 -19 -19 -19 -19 -18 -18 -18 -18 -18 -17 -17 -17 -18 -17 -17 -17 -17 -18 -18 -18 -17 -17 -17 -17 -17
-25 -25 -24 -24 -24 -27 -28 -27 -25 -23 -23 -23 -22 -21 -21 -21 -20 -19 -19 -19 -19 -19 -19 -18 -18 -18 -18 -18 -18 -17 -17 -17 -18 -17 -17 -17 -17 -17 -18 -18 -17 -17 -17 -17
-25 -24 -25 -24 -25 -28 -27 -27 -26 -24 -23 -24 -23 -22 -21 -21 -20 -19 -19 -19 -19 -19 -19 -19 -18 -18 -17 -17 -17 -17 -17 -18 -17 -17 -18 -17 -17 -18 -18 -18 -18 -18 -18 -18
-25 -25 -25 -25 -27 -28 -27 -27 -26 -24 -23 -23 -22 -21 -21 -21 -20 -19 -19 -18 -18 -19 -19 -19 -18 -18 -17 -17 -16 -16 -17 -18 -18 -18 -17 -17 -18 -19 -19 -18 -18 -18 -18 -18
-25 -25 -28 -28 -28 -28 -28 -27 -25 -24 -23 -22 -21 -21 -21 -20 -20 -19 -18 -18 -18 -18 -18 -19 -18 -17 -17 -16 -16 -17 -17 -18 -18 -18 -18 -18 -18 -18 -18 -18 -19 -19 -19 -18
-26 -28 -27 -27 -28 -28 -27 -25 -24 -24 -23 -21 -21 -20 -20 -20 -19 -18 -18 -18 -18 -18 -18 -18 -17 -17 -17 -16 -17 -17 -18 -18 -18 -18 -18 -18 -18 -18 -18 -19 -19 -19 -19 -19
-28 -28 -27 -28 -28 -27 -26 -26 -25 -24 -23 -21 -20 -20 -20 -20 -19 -18 -18 -17 -18 -18 -18 -18 -17 -17 -17 -17 -17 -18 -18 -18 -18 -18 -18 -18 -18 -18 -19 -19 -19 -19 -19 -19
-28 -28 -27 -28 -27 -26 -26 -25 -24 -23 -21 -20 -21 -20 -20 -20 -19 -19 -18 -18 -18 -18 -18 -18 -17 -17 -18 -18 -18 -18 -18 -17 -17 -18 -18 -19 -19 -19 -19 -19 -19 -19 -19 -20
-28 -28 -26 -26 -25 -25 -24 -23 -22 -20 -20 -20 -20 -20 -20 -19 -19 -19 -18 -18 -18 -18 -17 -18 -18 -17 -18 -18 -18 -18 -18 -18 -18 -19 -19 -18 -18 -18 -18 -18 -19 -19 -19 -20
-25 -26 -25 -24 -23 -22 -22 -21 -20 -20 -19 -19 -19 -19 -19 -19 -18 -18 -18 -18 -18 -18 -18 -17 -18 -19 -19 -19 -19 -19 -19 -19 -19 -18 -18 -18 -18 -18 -20 -19 -19 -19 -19 -20
-23 -23 -22 -21 -21 -21 -20 -20 -21 -20 -20 -21 -20 -20 -19 -19 -19 -19 -19 -18 -18 -18 -18 -18 -18 -18 -19 -19 -19 -19 -19 -19 -19 -19 -19 -19 -19 -19 -19 -19 -19 -20 -20 -21
-22 -21 -21 -20 -20 -21 -21 -21 -20 -19 -19 -19 -19 -19 -19 -19 -19 -19 -18 -18 -18 -18 -18 -18 -19 -19 -19 -19 -19 -20 -20 -20 -20 -20 -20 -20 -20 -20 -20 -20 -21 -21 -21 -21
-20 -20 -20 -20 -20 -20 -20 -20 -19 -19 -19 -19 -19 -19 -19 -19 -18 -18 -18 -19 -19 -19 -19 -19 -19 -19 -20 -20 -20 -20 -20 -20 -20 -20 -20 -20 -20 -21 -21 -21 -21 -21 -21 -22
-20 -20 -20 -20 -20 -20 -20 -20 -20 -19 -19 -19 -19 -19 -18 -19 -19 -19 -19 -19 -19 -19 -19 -19 -20 -20 -20 -20 -20 -20 -20 -20 -21 -21 -21 -21 -21 -21 -21 -21 -21 -22 -22 -23